GW2364 Weather Reports


time (UTC)temp
C
wind
direction
speed
KPH
gust
KPH
rain 1hr
cm
rain 24hr
cm
rain mn
cm
humidity
%
barometer
mb
20260905024508 28 130 1.6 6.4 0.00 0.00 0.00 70 1011.4
20260905023006 28 63 3.2 9.7 0.00 0.00 0.00 71 1011.3
20260905021505 28 94 0.0 3.2 0.00 0.00 0.00 71 1010.9
20260905020008 28 70 0.0 6.4 0.00 0.00 0.00 70 1010.9
20260905014505 28 77 1.6 8.0 0.00 0.00 0.00 69 1010.8
20260905013005 29 95 3.2 9.7 0.00 0.00 0.00 68 1010.6
20260905011506 29 80 3.2 9.7 0.00 0.00 0.00 67 1010.5
20260905010007 30 105 3.2 8.0 0.00 0.00 0.00 66 1010.4
20260905004507 30 104 3.2 12.9 0.00 0.00 0.00 63 1010.4
20260905003008 30 66 1.6 12.9 0.00 0.00 0.00 62 1010.1
20260905001505 31 49 4.8 12.9 0.00 0.00 0.00 61 1010.0
20260905000008 31 36 4.8 12.9 0.00 0.00 0.00 61 1009.9
20260904234506 31 43 4.8 14.5 0.00 0.00 0.00 59 1009.8
20260904233005 32 117 4.8 11.3 0.00 0.00 0.00 56 1009.7
20260904231506 33 53 1.6 14.5 0.00 0.00 0.00 46 1009.8
20260904230007 34 114 3.2 12.9 0.00 0.00 0.00 47 1009.9
20260904224505 34 246 1.6 8.0 0.00 0.00 0.00 48 1009.9
20260904223005 35 263 3.2 11.3 0.00 0.00 0.00 46 1010.1
20260904221506 35 93 4.8 11.3 0.00 0.00 0.00 45 1010.1
20260904220007 35 258 1.6 11.3 0.00 0.00 0.00 46 1010.1
20260904214505 34 103 3.2 11.3 0.00 0.00 0.00 52 1010.2
20260904213011 34 99 4.8 16.1 0.00 0.00 0.00 54 1010.4
20260904211504 33 5 6.4 16.1 0.00 0.00 0.00 55 1010.6
20260904210011 33 76 4.8 16.1 0.00 0.00 0.00 58 1010.7
20260904204505 32 45 4.8 14.5 0.00 0.00 0.00 60 1010.8
20260904203010 31 119 3.2 9.7 0.00 0.00 0.00 65 1011.1
20260904201504 31 51 6.4 12.9 0.00 0.00 0.00 67 1011.3
20260904200007 32 53 4.8 12.9 0.00 0.00 0.00 65 1011.3
20260904194506 31 94 4.8 12.9 0.00 0.00 0.00 66 1011.3
20260904193006 31 80 3.2 11.3 0.00 0.00 0.00 69 1011.5
20260904191505 31 71 3.2 11.3 0.00 0.00 0.00 69 1011.9
20260904190007 31 89 3.2 11.3 0.00 0.00 0.00 69 1012.1
20260904184504 31 92 3.2 12.9 0.00 0.00 0.00 69 1012.3
20260904183006 31 87 3.2 14.5 0.00 0.00 0.00 69 1012.5
20260904181518 31 59 4.8 12.9 0.00 0.00 0.00 67 1012.5
20260904180008 30 109 3.2 12.9 0.00 0.00 0.00 70 1012.6
20260904174505 30 116 1.6 9.7 0.00 0.00 0.00 71 1012.8
20260904173003 30 65 1.6 9.7 0.00 0.00 0.00 74 1013.0
20260904171503 29 221 1.6 6.4 0.00 0.00 0.00 75 1013.0
20260904170006 28 215 3.2 11.3 0.00 0.00 0.00 75 1012.9
20260904164505 29 225 0.0 12.9 0.00 0.00 0.00 77 1012.9
20260904163004 28 221 1.6 12.9 0.00 0.00 0.00 81 1012.9
20260904161504 27 232 3.2 8.0 0.00 0.00 0.00 84 1012.9
20260904160006 27 232 3.2 8.0 0.00 0.00 0.00 85 1012.8
20260904154504 26 232 1.6 11.3 0.00 0.00 0.00 86 1012.7
20260904153010 26 214 3.2 12.9 0.00 0.00 0.00 88 1012.7
20260904151504 26 229 1.6 6.4 0.00 0.00 0.00 89 1012.6
20260904150006 26 208 3.2 11.3 0.00 0.00 0.00 91 1012.6
20260904144505 26 240 3.2 8.0 0.00 0.00 0.00 92 1012.6
20260904143004 26 240 3.2 8.0 0.00 0.00 0.00 90 1012.6
20260904141507 26 244 1.6 4.8 0.00 0.00 0.00 88 1012.7
20260904140014 26 244 1.6 6.4 0.00 0.00 0.00 89 1012.7
20260904134504 26 94 0.0 3.2 0.00 0.00 0.00 90 1012.6
20260904133004 26 94 0.0 3.2 0.00 0.00 0.00 91 1012.5
20260904131503 26 94 0.0 1.6 0.00 0.00 0.00 90 1012.5
20260904130006 26 94 0.0 3.2 0.00 0.00 0.00 90 1012.4
20260904124509 25 89 0.0 6.4 0.00 0.00 0.00 90 1012.3
20260904123004 26 105 1.6 8.0 0.00 0.00 0.00 90 1012.1
20260904121503 26 109 3.2 8.0 0.00 0.00 0.00 89 1011.8
20260904120005 26 109 3.2 8.0 0.00 0.00 0.00 89 1011.3
20260904114505 26 109 4.8 12.9 0.00 0.00 0.00 89 1011.3
20260904113005 26 67 1.6 9.7 0.00 0.00 0.00 89 1011.2
20260904111503 26 107 0.0 6.4 0.00 0.00 0.00 89 1011.1
20260904110006 26 119 1.6 6.4 0.00 0.00 0.00 89 1011.2
20260904104504 26 105 0.0 3.2 0.00 0.00 0.00 88 1011.0
20260904103013 26 78 0.0 6.4 0.00 0.00 0.00 88 1010.9
20260904101505 26 109 0.0 3.2 0.00 0.00 0.00 88 1010.8
20260904100013 26 90 0.0 4.8 0.00 0.00 0.00 88 1010.8
20260904094503 26 222 0.0 3.2 0.00 0.00 0.00 87 1010.7
20260904093002 26 222 0.0 3.2 0.00 0.00 0.00 87 1010.6
20260904091503 26 165 0.0 11.3 0.00 0.00 0.00 87 1010.7
20260904090005 26 218 0.0 9.7 0.00 0.00 0.00 86 1010.6
20260904084503 26 232 1.6 8.0 0.00 0.00 0.00 86 1010.7
20260904083007 26 265 1.6 6.4 0.00 0.00 0.00 86 1010.7
20260904081505 26 316 0.0 4.8 0.00 0.00 0.00 86 1010.8
20260904080006 26 275 1.6 8.0 0.00 0.00 0.00 86 1010.7
20260904074503 26 303 1.6 8.0 0.00 0.00 0.00 86 1010.7
20260904073003 26 79 1.6 14.5 0.00 0.00 0.00 85 1010.8
20260904071503 26 197 0.0 6.4 0.00 0.00 0.00 85 1010.9
20260904070014 26 238 1.6 6.4 0.00 0.00 0.00 85 1011.0
20260904064510 26 103 1.6 9.7 0.00 0.00 0.00 84 1011.1
20260904063010 26 75 3.2 6.4 0.00 0.00 0.00 84 1011.0
20260904061503 26 217 1.6 12.9 0.00 0.00 0.00 83 1011.0
20260904060008 26 221 3.2 8.0 0.00 0.00 0.00 82 1011.1
20260904054506 26 88 1.6 9.7 0.00 0.00 0.00 82 1011.0
20260904053013 26 107 3.2 12.9 0.00 0.00 0.00 82 1010.8
20260904051506 26 102 1.6 11.3 0.00 0.00 0.00 82 1010.8
20260904050010 26 111 1.6 11.3 0.00 0.00 0.00 81 1010.9
20260904044506 26 100 4.8 11.3 0.00 0.00 0.00 81 1010.9
20260904043005 26 92 1.6 11.3 0.00 0.00 0.00 80 1010.8
20260904041505 26 92 4.8 14.5 0.00 0.00 0.00 80 1010.7
20260904040007 26 90 3.2 9.7 0.00 0.00 0.00 80 1010.6
20260904034505 26 103 1.6 14.5 0.00 0.00 0.00 79 1010.6
20260904033005 27 108 3.2 14.5 0.00 0.00 0.00 79 1010.6
20260904031505 27 60 4.8 14.5 0.00 0.00 0.00 78 1010.4
20260904030007 27 69 3.2 11.3 0.00 0.00 0.00 76 1010.3